Jefferson, NC

3:59 AM EST on November 20, 2019 (GMT -0500)
Ashe County

Weather History for KGEV - October, 2019

Change the Weather History Date:

Monday, October 21, 2019

  Actual Average Record
Temperature  
Mean Temperature 52 °F -  
Max Temperature 56 °F 62 °F 78 °F (1993)
Min Temperature 47 °F 36 °F 19 °F (1974)
Degree Days  
Heating Degree Days 14    
Growing Degree Days 2 (Base 50)    
Moisture  
Dew Point 53 °F    
Average Humidity 100    
Maximum Humidity 100    
Minimum Humidity 100    
Precipitation  
Precipitation 0.00 in - - ()
Sea Level Pressure  
Sea Level Pressure 30.08 in    
Wind  
Wind Speed 1 mph ()    
Max Wind Speed 7 mph    
Max Gust Speed -    
Visibility 3.2 miles    
Events Fog    
Averages and records for this station are not official NWS values.
T = Trace of Precipitation, MM = Missing Value Source: Averaged Metar Reports

Daily Weather History Graph

Daily Weather History Graph

Search for Another Location

Airport or City:

Astronomy

Oct. 21, 2019 Rise Set
Actual Time 7:38 AM EDT 6:41 PM EDT
Civil Twilight 7:11 AM EDT 7:08 PM EDT
Nautical Twilight 6:41 AM EDT 7:38 PM EDT
Astronomical Twilight 6:11 AM EDT 8:08 PM EDT
Moon No Moon Rise 2:49 PM EDT (10/21)
Length of Visible Light 11h 56m
Length of Day
11h 03m
Waning Gibbous, 48% of the Moon is Illuminated
Oct 21
Waning Gibbous
Oct 27
New
Nov 4
First Quarter
Nov 12
Full
Nov 19
Last Quarter

Hourly Weather History & Observations

Time (EDT) Temp. Dew Point Humidity Pressure Visibility Wind Dir Wind Speed Gust Speed Precip Events Conditions
12:15 AM 50.2 °F 50.2 °F 100% 30.06 in 0.2 mi North 3.5 mph - N/A Fog Fog
12:35 AM 50.9 °F 50.9 °F 100% 30.05 in 0.2 mi Calm Calm - N/A Fog Fog
12:55 AM 50.7 °F 50.7 °F 100% 30.06 in 0.2 mi Calm Calm - N/A Fog Fog
1:15 AM 50.9 °F 50.9 °F 100% 30.06 in 0.2 mi Calm Calm - N/A Fog Fog
1:35 AM 50.9 °F 50.9 °F 100% 30.07 in 0.2 mi Calm Calm - N/A Fog Fog
1:55 AM 50.4 °F 50.4 °F 100% 30.07 in 0.2 mi Calm Calm - N/A Fog Fog
2:15 AM 50.7 °F 50.7 °F 100% 30.07 in 0.2 mi Calm Calm - N/A Fog Fog
2:35 AM 50.0 °F 50.0 °F 100% 30.06 in 0.2 mi Calm Calm - N/A Fog Fog
2:55 AM 50.2 °F 50.2 °F 100% 30.06 in 0.2 mi Calm Calm - N/A Fog Fog
3:15 AM 50.0 °F 50.0 °F 100% 30.06 in 0.2 mi Calm Calm - N/A Fog Fog
3:35 AM 49.6 °F 49.6 °F 100% 30.05 in 0.2 mi Calm Calm - N/A Fog Fog
3:55 AM 49.1 °F 49.1 °F 100% 30.06 in 0.2 mi Calm Calm - N/A Fog Fog
4:15 AM 49.1 °F 49.1 °F 100% 30.05 in 0.2 mi Calm Calm - N/A Fog Fog
4:35 AM 48.7 °F 48.7 °F 100% 30.06 in 0.2 mi Calm Calm - N/A Fog Fog
4:55 AM 47.8 °F 47.8 °F 100% 30.06 in 0.2 mi Calm Calm - N/A Fog Fog
5:15 AM 47.5 °F 47.5 °F 100% 30.07 in 0.2 mi Calm Calm - N/A Fog Fog
5:35 AM 47.3 °F 47.3 °F 100% 30.05 in 0.5 mi Calm Calm - N/A Fog Fog
5:55 AM 47.7 °F 47.7 °F 100% 30.06 in 7.0 mi Calm Calm - N/A   Overcast
6:15 AM 48.2 °F 48.2 °F 100% 30.07 in 7.0 mi Calm Calm - N/A   Overcast
6:35 AM 48.6 °F 48.6 °F 100% 30.07 in 2.5 mi Calm Calm - N/A   Overcast
6:55 AM 48.7 °F 48.7 °F 100% 30.07 in 1.8 mi Calm Calm - N/A   Overcast
7:15 AM 49.6 °F 49.6 °F 100% 30.08 in 10.0 mi Calm Calm - N/A   Overcast
7:35 AM 49.8 °F 49.8 °F 100% 30.08 in 10.0 mi Calm Calm - N/A   Overcast
7:55 AM 50.4 °F 50.4 °F 100% 30.08 in 10.0 mi Calm Calm - N/A   Overcast
8:15 AM 50.0 °F 50.0 °F 100% 30.09 in 10.0 mi Calm Calm - N/A   Overcast
8:35 AM 50.9 °F 50.9 °F 100% 30.09 in 10.0 mi Calm Calm - N/A   Overcast
8:55 AM 51.3 °F 51.3 °F 100% 30.10 in 7.0 mi Calm Calm - N/A   Overcast
9:15 AM 51.8 °F 51.8 °F 100% 30.10 in 10.0 mi Calm Calm - N/A   Overcast
9:35 AM 52.5 °F 52.5 °F 100% 30.10 in 2.5 mi SSE 3.5 mph - N/A   Overcast
9:55 AM 53.1 °F 53.1 °F 100% 30.10 in 2.5 mi Calm Calm - N/A   Overcast
10:15 AM 52.9 °F 52.9 °F 100% 30.11 in 5.0 mi SSE 4.6 mph - N/A   Overcast
10:35 AM 53.1 °F 53.1 °F 100% 30.11 in 0.8 mi Calm Calm - N/A   Overcast
10:55 AM 53.2 °F 53.2 °F 100% 30.11 in 0.5 mi ESE 3.5 mph - N/A Fog Fog
11:15 AM 53.2 °F 53.2 °F 100% 30.12 in 0.2 mi Calm Calm - N/A Fog Fog
11:35 AM 54.5 °F 54.5 °F 100% 30.11 in 0.5 mi SE 3.5 mph - N/A Fog Fog
11:55 AM 54.5 °F 54.5 °F 100% 30.11 in 5.0 mi ESE 3.5 mph - N/A   Overcast
12:15 PM 54.5 °F 54.5 °F 100% 30.11 in 2.5 mi SE 4.6 mph - N/A   Overcast
12:35 PM 54.9 °F 54.9 °F 100% 30.11 in 10.0 mi SSE 4.6 mph - N/A   Overcast
12:55 PM 55.2 °F 55.2 °F 100% 30.11 in 10.0 mi Calm Calm - N/A   Overcast
1:15 PM 55.0 °F 55.0 °F 100% 30.10 in 7.0 mi SSE 3.5 mph - N/A   Overcast
1:35 PM 54.7 °F 54.7 °F 100% 30.10 in 3.0 mi Calm Calm - N/A   Overcast
1:55 PM 54.7 °F 54.7 °F 100% 30.09 in 1.5 mi Calm Calm - N/A   Overcast
2:15 PM 54.5 °F 54.5 °F 100% 30.09 in 0.2 mi Calm Calm - N/A Fog Fog
2:35 PM 55.0 °F 55.0 °F 100% 30.08 in 4.0 mi SE 3.5 mph - N/A   Overcast
2:55 PM 55.0 °F 55.0 °F 100% 30.07 in 5.0 mi SSE 3.5 mph - N/A   Overcast
3:15 PM 55.0 °F 55.0 °F 100% 30.07 in 7.0 mi Calm Calm - N/A   Overcast
3:55 PM 55.4 °F 55.4 °F 100% 30.07 in 4.0 mi Calm Calm - N/A   Overcast
4:15 PM 55.4 °F 55.4 °F 100% 30.07 in 2.0 mi Calm Calm - N/A   Overcast
4:35 PM 55.4 °F 55.4 °F 100% 30.07 in 1.5 mi SSE 4.6 mph - N/A   Overcast
4:55 PM 55.2 °F 55.2 °F 100% 30.07 in 0.2 mi South 5.8 mph - N/A Fog Fog
5:15 PM 55.2 °F 55.2 °F 100% 30.07 in 0.2 mi Calm Calm - N/A Fog Fog
5:35 PM 55.4 °F 55.4 °F 100% 30.07 in 0.2 mi SSE 3.5 mph - N/A Fog Fog
5:55 PM 55.0 °F 55.0 °F 100% 30.07 in 0.5 mi Calm Calm - N/A Fog Fog
6:15 PM 55.4 °F 55.4 °F 100% 30.07 in 0.2 mi Calm Calm - N/A Fog Fog
6:35 PM 55.4 °F 55.4 °F 100% 30.07 in 1.2 mi Calm Calm - N/A   Overcast
6:55 PM 55.4 °F 55.4 °F 100% 30.07 in 1.5 mi SE 3.5 mph - N/A   Overcast
7:15 PM 55.6 °F 55.6 °F 100% 30.07 in 1.2 mi Calm Calm - N/A   Overcast
7:55 PM 55.8 °F 55.8 °F 100% 30.07 in 5.0 mi Calm Calm - N/A   Overcast
8:15 PM 55.9 °F 55.9 °F 100% 30.08 in 7.0 mi SSE 3.5 mph - N/A   Overcast
8:35 PM 55.9 °F 55.9 °F 100% 30.08 in 3.0 mi Calm Calm - N/A   Overcast
8:55 PM 56.3 °F 56.3 °F 100% 30.08 in 4.0 mi SSE 5.8 mph - N/A   Overcast
9:15 PM 56.3 °F 56.3 °F 100% 30.08 in 3.0 mi SSE 5.8 mph - N/A   Overcast
9:55 PM 56.3 °F 56.3 °F 100% 30.07 in 0.8 mi Calm Calm - N/A   Overcast
10:15 PM 56.5 °F 56.5 °F 100% 30.07 in 3.0 mi SSE 4.6 mph - N/A   Overcast
10:35 PM 56.5 °F 56.5 °F 100% 30.07 in 3.0 mi SSE 4.6 mph - N/A   Overcast
11:15 PM 56.7 °F 56.7 °F 100% 30.06 in 7.0 mi SSE 6.9 mph - N/A   Overcast
11:35 PM 56.7 °F 56.7 °F 100% 30.08 in 7.0 mi SSE 4.6 mph - N/A   Overcast
11:55 PM 56.8 °F 56.8 °F 100% 30.07 in 7.0 mi SSE 6.9 mph - N/A   Overcast